Date String (YYYY-MM-DD hh:mm:ss) UTC,Instrument flags,Ambient pressure (hPa),Sample flow (lpm),Bypass flow (lpm),Sample temperature (°C),Ambient temperature (°C),ASC tube jacket temperature (°C),LED temperature (°C),Box temperature (°C),Sample RH (%),Span deviation,Mass concentration (μg/m³),Mass concentration (μg/m³),Mass concentration (μg/m³)
DateTimeUTC,F1_M11,P_M11,Q1_M11,Q2_M11,T1_M11,T2_M11,T3_M11,T4_M11,T5_M11,U1_M11,ZSPAN_M11,X0_M11,X2_M11,X1_M11
2022-12-26 03:00:00,,0827.3,5.02,0.00,22.0,20.9,00.0,30.9,23.8,14.5,0000.0,0003.82,0001.83,0001.67
2022-12-26 03:01:00,,0827.2,4.99,0.00,22.0,20.9,00.0,30.9,23.8,15.1,0000.0,0004.01,0001.89,0001.72
2022-12-26 03:02:00,,0827.3,4.97,0.00,22.0,20.9,00.0,30.9,23.8,14.9,0000.0,0004.08,0001.89,0001.70
2022-12-26 03:03:00,,0827.3,4.98,0.00,22.0,20.9,00.0,30.9,23.8,14.7,0000.0,0003.98,0001.86,0001.66
2022-12-26 03:04:00,,0827.4,5.02,0.00,22.0,20.8,00.0,30.9,23.8,15.3,0000.0,0003.77,0001.82,0001.65
2022-12-26 03:05:00,,0827.4,4.99,0.00,22.0,20.8,00.0,30.9,23.8,15.2,0000.0,0003.70,0001.80,0001.66
2022-12-26 03:06:00,,0827.4,5.02,0.00,22.0,20.8,00.0,30.9,23.9,15.1,0000.0,0003.70,0001.80,0001.66
2022-12-26 03:07:00,,0827.4,4.97,0.00,22.0,20.8,00.0,30.9,23.8,15.0,0000.0,0003.77,0001.84,0001.68
2022-12-26 03:08:00,,0827.4,4.98,0.00,22.0,20.8,00.0,30.9,23.8,14.7,0000.0,0003.82,0001.87,0001.70
2022-12-26 03:09:00,,0827.4,5.03,0.00,22.0,20.8,00.0,30.9,23.8,14.4,0000.0,0003.75,0001.81,0001.63
2022-12-26 03:10:00,,0827.4,5.03,0.00,22.0,20.8,00.0,30.9,23.8,14.9,0000.0,0003.74,0001.80,0001.61
2022-12-26 03:11:00,,0827.5,5.01,0.00,22.0,20.8,00.0,30.9,23.8,15.2,0000.0,0003.96,0001.99,0001.81
2022-12-26 03:12:00,,0827.6,4.97,0.00,22.0,20.8,00.0,30.9,23.8,15.1,0000.0,0004.04,0002.13,0001.96
2022-12-26 03:13:00,,0827.5,5.00,0.00,22.0,20.7,00.0,30.9,23.7,15.1,0000.0,0003.56,0002.21,0002.06
2022-12-26 03:14:00,,0827.4,5.02,0.00,22.0,20.7,00.0,30.9,23.7,15.1,0000.0,0003.08,0002.42,0002.25
2022-12-26 03:15:00,,0827.4,5.02,0.00,22.0,20.7,00.0,30.9,23.8,15.1,0000.0,0003.26,0002.57,0002.39
2022-12-26 03:16:00,,0827.3,4.98,0.00,22.0,20.8,00.0,30.9,23.8,14.9,0000.0,0003.41,0002.69,0002.49
2022-12-26 03:17:00,,0827.4,4.97,0.00,22.0,20.8,00.0,30.9,23.8,14.7,0000.0,0003.37,0002.67,0002.49
2022-12-26 03:18:00,,0827.4,5.01,0.00,22.0,20.7,00.0,30.9,23.7,15.1,0000.0,0003.46,0002.72,0002.53
2022-12-26 03:19:00,,0827.4,5.01,0.00,22.0,20.7,00.0,30.9,23.7,14.9,0000.0,0003.60,0002.81,0002.64
2022-12-26 03:20:00,,0827.4,4.99,0.00,22.0,20.7,00.0,30.9,23.7,14.8,0000.0,0003.72,0002.93,0002.78
2022-12-26 03:21:00,,0827.4,4.97,0.00,22.0,20.7,00.0,30.9,23.7,14.8,0000.0,0003.78,0002.99,0002.84
2022-12-26 03:22:00,,0827.4,4.98,0.00,22.0,20.7,00.0,30.9,23.7,14.7,0000.0,0003.63,0002.88,0002.74
2022-12-26 03:23:00,,0827.5,5.03,0.00,22.0,20.7,00.0,30.9,23.8,14.3,0000.0,0003.40,0002.69,0002.56
2022-12-26 03:24:00,,0827.5,5.03,0.00,22.0,20.7,00.0,30.9,23.7,14.7,0000.0,0003.31,0002.61,0002.46
2022-12-26 03:25:00,,0827.5,5.00,0.00,22.0,20.7,00.0,30.9,23.7,14.8,0000.0,0003.24,0002.54,0002.39
2022-12-26 03:26:00,,0827.5,4.98,0.00,22.0,20.7,00.0,30.9,23.6,15.0,0000.0,0003.12,0002.45,0002.30
2022-12-26 03:27:00,,0827.5,4.99,0.00,22.0,20.7,00.0,30.9,23.7,15.0,0000.0,0003.04,0002.37,0002.23
2022-12-26 03:28:00,,0827.5,5.06,0.00,22.0,20.7,00.0,30.9,23.7,15.0,0000.0,0003.12,0002.44,0002.28
2022-12-26 03:29:00,,0827.6,5.01,0.00,22.0,20.7,00.0,30.9,23.7,15.2,0000.0,0003.07,0002.44,0002.29
2022-12-26 03:30:00,,0827.6,4.97,0.00,22.0,20.7,00.0,30.9,23.7,15.3,0000.0,0003.07,0002.49,0002.35
2022-12-26 03:31:00,,0827.5,4.96,0.00,22.0,20.7,00.0,30.9,23.6,15.3,0000.0,0003.21,0002.59,0002.43
2022-12-26 03:32:00,,0827.5,5.03,0.00,22.0,20.7,00.0,30.9,23.6,15.2,0000.0,0003.36,0002.71,0002.53
2022-12-26 03:33:00,,0827.5,5.02,0.00,21.9,20.6,00.0,30.9,23.6,15.0,0000.0,0003.50,0002.82,0002.63
2022-12-26 03:34:00,,0827.5,5.01,0.00,21.9,20.6,00.0,30.9,23.6,14.8,0000.0,0003.62,0002.92,0002.72
2022-12-26 03:35:00,,0827.5,4.98,0.00,21.9,20.6,00.0,30.9,23.5,14.8,0000.0,0003.62,0002.92,0002.75
2022-12-26 03:36:00,,0827.4,4.99,0.00,21.9,20.6,00.0,30.9,23.6,15.1,0000.0,0003.56,0002.93,0002.76
2022-12-26 03:37:00,,0827.4,5.02,0.00,21.9,20.6,00.0,30.8,23.5,15.3,0000.0,0003.67,0003.06,0002.91
2022-12-26 03:38:00,,0827.4,5.02,0.00,21.9,20.6,00.0,30.8,23.5,15.3,0000.0,0003.83,0003.16,0003.06
2022-12-26 03:39:00,,0827.4,4.98,0.00,21.9,20.6,00.0,30.8,23.6,15.1,0000.0,0003.86,0003.19,0003.12
2022-12-26 03:40:00,,0827.4,4.96,0.00,21.9,20.6,00.0,30.8,23.6,15.1,0000.0,0003.87,0003.20,0003.13
2022-12-26 03:41:00,,0827.3,4.98,0.00,21.9,20.6,00.0,30.8,23.6,15.1,0000.0,0003.85,0003.17,0003.09
2022-12-26 03:42:00,,0827.3,5.02,0.00,21.9,20.6,00.0,30.8,23.6,15.0,0000.0,0003.67,0003.08,0002.95
2022-12-26 03:43:00,,0827.3,5.03,0.00,21.9,20.6,00.0,30.8,23.6,14.9,0000.0,0003.46,0002.91,0002.79
2022-12-26 03:44:00,,0827.2,5.00,0.00,21.9,20.6,00.0,30.8,23.6,14.9,0000.0,0003.23,0002.71,0002.61
2022-12-26 03:45:00,,0827.4,4.99,0.00,21.9,20.6,00.0,30.8,23.6,14.9,0000.0,0003.08,0002.59,0002.50
2022-12-26 03:46:00,,0827.4,4.98,0.00,21.9,20.6,00.0,30.8,23.5,14.9,0000.0,0003.06,0002.56,0002.45
2022-12-26 03:47:00,,0827.4,5.02,0.00,21.9,20.6,00.0,30.8,23.5,15.0,0000.0,0003.00,0002.49,0002.38
2022-12-26 03:48:00,,0827.4,5.02,0.00,21.9,20.6,00.0,30.8,23.6,14.9,0000.0,0002.86,0002.32,0002.19
2022-12-26 03:49:00,,0827.4,5.00,0.00,21.9,20.6,00.0,30.8,23.5,14.9,0000.0,0002.58,0002.07,0001.95
2022-12-26 03:50:00,,0827.4,4.96,0.00,21.9,20.5,00.0,30.8,23.5,15.0,0000.0,0002.37,0001.86,0001.73
2022-12-26 03:51:00,,0827.4,4.99,0.00,21.9,20.5,00.0,30.8,23.5,15.0,0000.0,0002.27,0001.72,0001.59
2022-12-26 03:52:00,,0827.4,5.02,0.00,21.9,20.5,00.0,30.8,23.5,15.1,0000.0,0002.22,0001.63,0001.48
2022-12-26 03:53:00,,0827.3,5.02,0.00,21.8,20.5,00.0,30.8,23.5,15.3,0000.0,0002.23,0001.58,0001.44
2022-12-26 03:54:00,,0827.3,4.98,0.00,21.8,20.5,00.0,30.8,23.4,15.1,0000.0,0002.14,0001.50,0001.36
2022-12-26 03:55:00,,0827.3,4.98,0.00,21.8,20.5,00.0,30.8,23.4,15.2,0000.0,0002.02,0001.39,0001.26
2022-12-26 03:56:00,,0827.3,4.99,0.00,21.8,20.5,00.0,30.8,23.5,15.2,0000.0,0001.96,0001.33,0001.20
2022-12-26 03:57:00,,0827.3,5.03,0.00,21.8,20.4,00.0,30.8,23.4,15.2,0000.0,0001.85,0001.24,0001.12
2022-12-26 03:58:00,,0827.4,5.02,0.00,21.8,20.4,00.0,30.7,23.4,15.3,0000.0,0001.75,0001.15,0001.04
2022-12-26 03:59:00,,0827.5,4.98,0.00,21.8,20.4,00.0,30.7,23.4,15.4,0000.0,0001.63,0001.05,0000.95
